Location: Colle Santa Colomba
(42.0333°N, 12.5667°E)
Time: 01:51:05
(UTC+00:00)

Cosmos 1605 Rocket - Pass Details

Date: 25 October 2021
Orbit: 945 x 1006 km, 82.9° (Epoch: 05 December)

Event Time Altitude Azimuth Distance (km) Brightness Sun altitude
Rises 17:19:29 0° 178° (S) 3,660 7.1 -13.0°
Reaches altitude 10° 17:21:58 10° 177° (S) 2,725 6.4 -13.4°
Maximum altitude 17:28:11 72° 94° (E) 1,043 4.0 -14.6°
Drops below altitude 10° 17:34:32 10° 12° (NNE) 2,779 6.2 -15.8°
Sets 17:37:06 0° 10° (N) 3,737 6.9 -16.2°
